Lapse_Rate
-2.7 -2.6 -2.5 -2.0 -1.6 -1.4 -1.2 -1.7 -1.3 -1.1 -0.5 1.1 1.8 1.7 2.1 2.8 1.9 1.8 1.3 1.8 2.3 3.6
-1.5 -1.6 -1.6 -1.5 -1.5 -1.6 -1.3 0.1 -1.4 -0.8 -0.5 0.2 1.5 1.3 1.6 2.3 1.1 0.8 1.6 0.8 1.4 2.5
-0.4 -0.8 -1.4 -1.4 -1.4 -1.4 -1.8 -1.5 -1.3 -0.7 -0.1 0.2 0.5 0.6 0.6 0.5 1.4 0.7 0.8 1.6 2.0 2.7
-0.2 -0.6 -1.1 -1.1 -1.4 -1.7 -1.5 -1.2 -1.0 -0.9 -0.6 -0.3 0.1 0.1 -0.0 0.3 0.8 0.9 1.3 1.7 1.6 2.1
0.6 -0.2 -1.2 -1.0 -1.4 -1.3 -1.4 -1.0 -1.1 -0.4 -0.0 0.2 -0.1 -0.4 0.7 1.1 1.0 1.4 1.8 1.7 2.0 2.3
0.9 -0.0 -0.7 -0.6 -0.9 -1.0 -1.0 -0.9 -0.7 -0.2 0.9 1.2 0.8 1.2 1.4 1.3 1.4 1.9 2.1 1.9 2.1 2.5
0.3 -0.1 0.1 0.1 -0.6 -0.3 -0.8 -0.4 -0.8 0.5 2.9 1.7 1.6 1.8 1.8 2.0 2.0 2.2 2.7 2.5 2.6 3.0
0.6 0.4 0.6 0.2 0.3 -0.0 -0.3 -0.6 0.2 1.4 3.9 3.4 2.8 2.1 0.9 2.3 2.5 2.8 2.9 3.0 3.0 3.2
1.9 1.3 1.0 1.1 0.7 -0.2 -0.6 -0.4 0.3 2.7 2.8 3.4 2.9 1.8 2.0 2.7 2.5 2.6 2.8 3.7 3.7 3.6
1.7 1.7 1.1 1.0 0.5 -1.0 -1.3 -0.6 -0.3 0.8 2.7 2.3 2.2 2.1 2.8 3.6 2.4 2.1 2.5 3.1 3.7 3.4
2.0 1.1 0.9 0.3 -1.2 -2.2 -2.7 -4.5 -4.5 -2.3 0.1 2.2 2.3 2.9 3.9 3.9 2.0 2.3 2.7 3.1 3.9 3.0
2.2 1.0 0.4 -1.4 -2.1 -2.3 -2.2 -3.7 -5.7 -5.3 -1.7 -0.2 0.3 4.2 4.5 3.6 2.5 2.3 2.9 4.3 5.5 4.1
1.8 0.6 -1.2 -2.3 -2.4 -5.2 -4.9 -4.3 -1.8 -2.1 -3.0 2.3 -1.8 4.9 4.9 3.2 3.1 2.2 3.1 3.4 3.7 8.3
1.9 0.9 -0.3 -1.0 -1.8 -3.7 -4.1 -3.6 -4.5 -2.2 -3.5 -1.7 2.1 6.7 7.1 5.7 1.8 1.9 2.7 2.4 2.3 4.0
Wind_Speed
6 5 4 5 3 3 4 4 9 10 10 10 12 12 10 7 6 6 6 9 8 5
5 6 6 6 5 4 4 5 8 10 8 8 10 11 9 6 7 6 5 7 7 6
5 6 7 7 7 6 5 8 7 7 7 8 10 10 9 5 8 7 6 5 7 8
5 5 7 7 6 6 7 7 5 5 4 6 8 9 7 6 7 7 6 6 7 8
6 7 8 7 6 7 6 7 6 6 5 7 6 9 7 7 7 8 8 9 8 9
7 7 8 7 6 6 5 5 7 6 6 7 7 6 5 6 7 7 7 9 9 10
8 8 7 6 7 6 7 5 6 4 6 6 6 7 7 7 7 7 7 9 9 10
8 9 8 8 6 6 6 6 6 4 6 6 4 7 7 7 7 7 8 9 9 11
9 9 8 7 7 7 7 6 5 5 6 4 6 16 16 9 8 10 9 9 9 11
11 9 8 8 7 8 7 5 5 5 4 6 6 17 15 12 8 8 8 8 9 10
11 11 9 8 8 7 5 4 4 4 3 4 8 15 13 13 9 7 7 5 6 8
12 12 10 9 8 5 7 5 4 2 3 4 6 14 13 11 6 7 7 9 8 8
11 11 10 11 8 2 4 5 3 5 3 8 3 15 13 11 5 7 6 7 11 19
11 11 12 10 7 5 6 6 4 3 3 6 6 9 13 14 5 4 5 5 5 6
Wind_Direction
121 115 109 107 101 86 71 46 37 39 34 36 35 49 41 35 35 27 27 32 22 19
125 117 111 96 83 70 52 63 48 43 35 33 48 50 47 40 41 26 30 22 14 27
127 113 108 101 94 81 64 56 51 36 25 39 48 49 58 39 47 32 23 17 15 29
117 105 99 96 90 83 71 56 53 43 37 48 50 43 50 55 37 38 27 19 20 15
114 113 102 98 88 82 81 63 60 38 37 68 59 49 55 58 46 40 34 28 27 24
124 108 103 105 99 84 78 59 58 47 61 64 62 61 62 57 56 43 43 39 32 29
126 115 108 107 93 90 75 74 56 35 84 81 75 70 65 57 57 48 44 49 39 31
123 118 116 108 108 99 84 68 58 53 83 103 90 76 62 54 54 53 51 51 43 34
128 120 116 120 116 99 83 70 62 85 75 84 79 78 74 66 64 58 46 53 43 45
132 130 125 125 121 104 88 77 68 48 79 86 80 81 78 74 62 59 50 53 48 48
137 131 128 122 111 100 93 89 70 42 15 82 83 83 85 79 62 54 45 40 62 62
145 137 134 124 123 116 106 80 60 40 38 85 71 89 93 85 70 60 50 42 73 66
143 137 136 130 129 102 97 98 90 57 359 90 66 95 96 88 81 66 54 40 24 60
136 136 136 132 121 119 102 96 78 93 21 55 36 106 102 102 89 90 76 58 34 27